星链-5266 (STARLINK-5266 )

导读 | 星芒AI

STARLINK-5266 是 SpaceX 星链计划中的一颗低轨通信卫星,属于第 20 批部署的星链卫星群。该卫星于 2023 年发射,运行在约 550 公里的轨道高度,旨在为全球用户提供高速互联网服务。作为星链星座的一部分,STARLINK-5266 采用先进推进系统和激光通信技术,提升网络稳定性和数据传输效率。星链项目致力于构建覆盖全球的宽带网络,尤其服务于偏远地区,推动全球互联网普及。

基本信息
目录编号:
55290
目录名称:
STARLINK-5266
国际标识:
2023-010X
轨道中心:
EARTH
卫星名称:
星链-5266
卫星全名:
星链-5266 (STARLINK-5266 )
卫星状态:
在轨 (已飞行1067 天)
发射日期:
2023-01-19 UTC
国别 :
美国 (US)
星等 :
--
轨道信息
数据来源 国际轨道数据 AOE轨道数据
星历时间 2025-12-21T08:22:13+0800
11小时前
查看轨道信息
2025-12-18T06:00:00+0800
3天前
查看轨道信息
半长轴 6950.193km 6950.187km
偏心率 0.0002669 0.000317
轨道倾角 69.998° 69.996°
近地点辐角 268.621° 268.875°
升交点赤经 222.852° 230.663°
平近点角 91.464° 301.262°
近地点 570.2km 569.848km
远地点 573.912km 574.256km
周期 96.107分钟 96.107分钟
每日圈数 14.983302 14.983321
详细信息
固有亮度:
5
最大亮度:
2.5
卫星平台:
Starlink v1.5
覆盖范围:
全球
运营商:
太空探索技术公司
运营商所在国:
美国
制造商(研发单位):
太空探索技术公司
制造商所在国:
美国
使用方式:
暂无
卫星简介
星链(Starlink)计划是由太空探索技术公司(SpaceX)提出的一个巨型低轨卫星互联网星座项目,计划在2019年至2024年间在太空搭建由约1.2万颗卫星组成的“星链”网络,其中1584颗将部署在地球上空550千米处的近地轨道,并从2020年开始工作。该卫星仍在工作。
2D轨道图
3D轨道图
轨道高度分析图
轨道倾角分析图
轨道综合分析图
查看轨道综合分析图